{"data":{"norad_id":61696,"epoch":"2026-09-21T20:11:33.687168Z","epoch_age_seconds":72568,"freshness":"FRESH","line1":"1 61696U 24195K   26264.84136212 -.00000487  00000+0  83911-6 0  9993","line2":"2 61696  53.1596 139.1417 0001082  93.2926 266.8216 15.69705241109840","mean_motion":15.69705241,"eccentricity":0.0001082,"inclination_deg":53.1596,"raan_deg":139.1417,"arg_perigee_deg":93.2926,"mean_anomaly_deg":266.8216,"bstar":8.3911e-7,"rev_number":10984,"period_min":91.736968342071,"perigee_km":359.01133055922,"apogee_km":360.46940722185,"semimajor_km":6737.8773688905,"source":"CELESTRAK","updated_at":"2026-09-22T09:00:49.407743Z"}}